Content
SEND FEEDBACK

Daily
Averages
Monthly
Summary
United States of America

MOORHEAD, MINNESOTA


Home > North America > United States > Minnesota
Elevation: 940 feet     Latitude: 46 52N     Longitude: 096 45W

WEATHER
 
SELECT A DAY
Number of Records: 159,596;   Date Range: 1/1/95 - 7/23/14
 
SHARE

PRINT THIS DATA

[ ← Previous Day ]
WEATHER ALMANAC - JANUARY 31, 2013
[ Next Day → ]
[ °C ]   °F
Weather ElementAverageHighLow
Temperature-10.4 °F-7.6 °F (12:14 am)-18.8 °F (11:55 pm)
Dewpoint-18.1 °F-14.8 °F (12:14 am)-27.2 °F (11:55 pm)
Humidity68.9 %77 % (1:25 am)54 % (3:23 pm)
Barometer30.16 in30.32 in (7:55 pm)29.99 in (12:14 am)
Wind Speed15.9 mph23 mph (6:55 am)
Wind Gust27.6 mph (6:39 am)
Weather ElementAverage
Visibility7.5 mi
Wind DirectionNNW (337.5 °)

Weather ElementTotal
Precipitation---
Heating Degree Days78.2 (Base 65)
Averaged from 77 records on January 31, 2013
WEATHER CONDITIONS BREAKOUT
WIND DIRECTION BREAKOUT
WEATHER BY HOUR - JANUARY 31, 2013
[ °C ]   °F
Local TimeTemperatureDewpointHumidityBarometerVisibilityWind DirectionWind SpeedGust SpeedPrecipitationEventsConditions
12:14 AM-7.6 °F-14.8 °F71 %29.99 in10.0 miNNW (340°)17.3 mph24.2 mphSnowLight Snow
12:16 AM-7.6 °F-14.8 °F71 %29.99 in10.0 miNNW (340°)18.4 mph24.2 mphSnowLight Snow
12:22 AM-7.6 °F-14.8 °F71 %29.99 in10.0 miNNW (330°)19.6 mph23.0 mphSnowLight Snow
1:25 AM-9.4 °F-14.8 °F77 %30.01 in4.0 miNNW (340°)18.4 mph23.0 mphSnowLight Snow
1:40 AM-9.4 °F-14.8 °F77 %30.01 in4.0 miNNW (340°)17.3 mphSnowLight Snow
1:55 AM-8.7 °F-15.2 °F73 %30.01 in5.0 miNNW (330°)16.1 mph0.00 inSnowLight Snow
2:23 AM-9.4 °F-14.8 °F77 %30.03 in6.0 miNNW (340°)15.0 mph23.0 mphSnowLight Snow
2:28 AM-9.4 °F-14.8 °F77 %30.03 in8.0 miNNW (340°)15.0 mphOvercast
2:29 AM-9.4 °F-16.6 °F71 %30.03 in9.0 miNNW (340°)16.1 mphSnowLight Snow
2:38 AM-9.4 °F-16.6 °F71 %30.03 in6.0 miNNW (340°)15.0 mph23.0 mphSnowLight Snow
2:43 AM-9.4 °F-16.6 °F71 %30.04 in7.0 miNNW (340°)13.8 mphSnowLight Snow
2:55 AM-9.0 °F-16.1 °F71 %30.04 in10.0 miNNW (340°)17.3 mph0.00 inOvercast
3:28 AM-9.4 °F-16.6 °F71 %30.05 in10.0 miNNW (340°)17.3 mphSnowLight Snow
3:35 AM-9.4 °F-16.6 °F71 %30.05 in9.0 miNNW (340°)15.0 mphSnowLight Snow
3:47 AM-9.4 °F-16.6 °F71 %30.05 in6.0 miNNW (340°)16.1 mphSnowLight Snow
3:54 AM-9.4 °F-16.6 °F71 %30.06 in4.0 miNNW (340°)15.0 mphSnowLight Snow
3:55 AM-9.4 °F-16.2 °F72 %30.06 in5.0 miNNW (340°)17.3 mph0.00 inSnowLight Snow
3:57 AM-9.4 °F-16.6 °F71 %30.06 in5.0 miNNW (340°)16.1 mphSnowLight Snow
4:22 AM-9.4 °F-16.6 °F71 %30.07 in4.0 miNNW (340°)16.1 mph24.2 mphSnowLight Snow
4:42 AM-9.4 °F-16.6 °F71 %30.08 in4.0 miNNW (330°)17.3 mphSnowLight Snow
4:54 AM-9.4 °F-16.6 °F71 %30.09 in4.0 miNNW (340°)15.0 mphSnowLight Snow
4:55 AM-9.8 °F-16.4 °F72 %30.09 in4.0 miNNW (340°)12.7 mph0.00 inSnowLight Snow
5:05 AM-9.4 °F-16.6 °F71 %30.09 in5.0 miNNW (340°)13.8 mphSnowLight Snow
5:24 AM-9.4 °F-16.6 °F71 %30.10 in7.0 miNNW (340°)12.7 mphOvercast
5:33 AM-9.4 °F-16.6 °F71 %30.11 in6.0 miNorth (350°)16.1 mph23.0 mphSnowLight Snow
5:39 AM-9.4 °F-16.6 °F71 %30.11 in5.0 miNorth (360°)19.6 mph23.0 mphSnowLight Snow
5:53 AM-9.4 °F-14.8 °F77 %30.11 in5.0 miNorth (360°)18.4 mph24.2 mphSnowLight Snow
5:55 AM-8.9 °F-15.3 °F73 %30.11 in5.0 miNorth (350°)18.4 mph24.2 mph0.00 inSnowLight Snow
6:08 AM-9.4 °F-16.6 °F71 %30.12 in5.0 miNorth (350°)17.3 mph23.0 mphSnowBlowing Snow
6:12 AM-9.4 °F-16.6 °F71 %30.12 in5.0 miNorth (350°)21.9 mphSnowBlowing Snow
6:19 AM-9.4 °F-16.6 °F71 %30.13 in5.0 miNorth (350°)17.3 mph25.3 mphSnowBlowing Snow
6:24 AM-9.4 °F-16.6 °F71 %30.13 in5.0 miNorth (350°)15.0 mphSnowBlowing Snow
6:28 AM-9.4 °F-14.8 °F77 %30.13 in4.0 miNorth (350°)17.3 mph21.9 mphSnowBlowing Snow
6:30 AM-9.4 °F-14.8 °F77 %30.13 in4.0 miNorth (350°)18.4 mphSnowBlowing Snow
6:31 AM-9.4 °F-14.8 °F77 %30.13 in4.0 miNorth (350°)18.4 mph25.3 mphSnowBlowing Snow
6:35 AM-9.4 °F-14.8 °F77 %30.13 in4.0 miNorth (350°)20.7 mph25.3 mphSnowBlowing Snow
6:39 AM-9.4 °F-16.6 °F71 %30.14 in4.0 miNorth (350°)19.6 mph27.6 mphSnowBlowing Snow
6:41 AM-9.4 °F-16.6 °F71 %30.14 in4.0 miNNW (340°)20.7 mph27.6 mphSnowBlowing Snow
6:49 AM-9.4 °F-16.6 °F71 %30.14 in7.0 miNorth (350°)19.6 mph27.6 mphOvercast
6:53 AM-9.4 °F-16.6 °F71 %30.14 in7.0 miNorth (360°)20.7 mph26.5 mphSnowBlowing Snow
6:54 AM-9.4 °F-16.6 °F71 %30.15 in7.0 miNorth (360°)20.7 mph26.5 mphSnowBlowing Snow
6:55 AM-9.8 °F-17.0 °F71 %30.14 in7.0 miNorth (360°)23.0 mph26.5 mph0.00 inOvercast
6:56 AM-9.4 °F-16.6 °F71 %30.15 in8.0 miNorth (360°)19.6 mph26.5 mphOvercast
7:07 AM-9.4 °F-16.6 °F71 %30.15 in6.0 miNNW (330°)15.0 mphHaze
7:08 AM-9.4 °F-16.6 °F71 %30.15 in6.0 miNNW (330°)15.0 mphHaze
7:14 AM-9.4 °F-16.6 °F71 %30.16 in5.0 miNNW (340°)17.3 mph23.0 mphSnowLight Snow
7:20 AM-9.4 °F-16.6 °F71 %30.16 in7.0 miNorth (350°)17.3 mph26.5 mphOvercast
7:22 AM-9.4 °F-18.4 °F65 %30.16 in8.0 miNorth (360°)17.3 mph26.5 mphOvercast
7:37 AM-9.4 °F-16.6 °F71 %30.17 in9.0 miNNW (340°)17.3 mphOvercast
7:41 AM-11.2 °F-18.4 °F70 %30.17 in9.0 miNNW (340°)16.1 mphOvercast
7:43 AM-11.2 °F-18.4 °F70 %30.18 in9.0 miNNW (340°)13.8 mphOvercast
7:55 AM-10.7 °F-18.2 °F69 %30.18 in9.0 miNNW (340°)18.4 mph0.00 inOvercast
8:13 AM-11.2 °F-18.4 °F70 %30.19 in10.0 miNNW (330°)16.1 mphOvercast
8:55 AM-11.6 °F-20.2 °F66 %30.21 in10.0 miNNW (340°)15.0 mphOvercast
9:46 AM-11.2 °F-20.2 °F64 %30.24 in10.0 miNNW (330°)18.4 mph24.2 mphOvercast
9:48 AM-11.2 °F-20.2 °F64 %30.24 in10.0 miNNW (330°)17.3 mph24.2 mphOvercast
9:55 AM-10.8 °F-20.2 °F63 %30.24 in10.0 miNNW (340°)17.3 mph24.2 mphOvercast
10:55 AM-10.3 °F-20.0 °F62 %30.26 in10.0 miNNW (340°)16.1 mph
11:07 AM-9.4 °F-20.2 °F59 %30.27 in10.0 miNNW (340°)19.6 mph23.0 mphOvercast
11:55 AM-9.4 °F-19.7 °F61 %30.27 in10.0 miNNW (330°)18.4 mph24.2 mphOvercast
12:39 PM-9.4 °F-18.4 °F65 %30.27 in10.0 miNW (320°)16.1 mphMostly Cloudy
12:55 PM-9.8 °F-20.0 °F61 %30.28 in10.0 miNNW (330°)15.0 mph23.0 mphMostly Cloudy
1:43 PM-9.4 °F-20.2 °F59 %30.28 in10.0 miNW (320°)17.3 mphOvercast
1:55 PM-9.9 °F-20.0 °F61 %30.28 in10.0 miNW (320°)17.3 mphMostly Cloudy
2:55 PM-11.2 °F-22.0 °F59 %30.29 in10.0 miNNW (330°)17.3 mph0.00 inMostly Cloudy
3:23 PM-9.4 °F-22.0 °F54 %30.30 in10.0 miNNW (330°)15.0 mphScattered Clouds
3:55 PM-10.3 °F-21.3 °F58 %30.30 in10.0 miNNW (330°)15.0 mphScattered Clouds
4:55 PM-12.3 °F-22.5 °F60 %30.31 in10.0 miNNW (340°)11.5 mphPartly Cloudy
5:55 PM-14.1 °F-23.3 °F63 %30.31 in10.0 miNW (320°)6.9 mphClear
6:35 PM-14.8 °F-23.8 °F64 %30.31 in10.0 miNW (310°)8.1 mphPartly Cloudy
6:39 PM-14.8 °F-23.8 °F64 %30.31 in10.0 miNW (310°)6.9 mphPartly Cloudy
6:55 PM-15.2 °F-24.0 °F64 %30.31 in10.0 miNW (310°)6.9 mphClear
7:55 PM-15.7 °F-24.5 °F64 %30.32 in10.0 miNW (320°)9.2 mphClear
8:55 PM-16.4 °F-25.2 °F64 %30.31 in10.0 miNW (320°)8.1 mphClear
9:55 PM-17.3 °F-26.1 °F64 %30.30 in10.0 miNW (310°)8.1 mphClear
10:55 PM-18.0 °F-26.7 °F65 %30.30 in10.0 miWNW (300°)8.1 mphClear
11:55 PM-18.8 °F-27.2 °F65 %30.28 in10.0 miWNW (290°)4.6 mphClear
Hourly data recorded from KRDR, located miles away from Moorhead, Minnesota







STORIES FROM OUR PARTNERS